Theta_e
294 294 293 292 291 291 292 292 292 292 292 292 291 291 291 291 290 290 290 289 289 288 288 288 288 288 287 287 287 287 287 286 286 286 286 286 286 286 286 286 285 285 285 285 285 285 285 285 285 285 285 285 285 284 284 284 284 284 284 284 283 283 282 281 281 282 284 285 284 283 283 283 283 283 283 284 284 284 284 284 284 284 285 285 286
294 293 292 291 291 291 291 291 291 291 291 291 291 291 290 290 290 289 289 289 288 288 288 288 288 287 287 287 287 287 287 286 286 286 286 286 286 286 286 285 285 285 285 285 285 285 285 285 285 285 285 284 284 284 284 284 284 284 284 283 283 283 282 281 280 281 283 284 284 283 282 282 282 282 282 282 283 283 283 283 283 283 283 284 285
293 292 291 291 291 291 291 291 291 291 291 291 290 290 290 290 289 289 289 288 288 288 288 287 287 287 287 287 287 287 287 286 286 286 286 286 286 285 285 285 285 285 285 284 284 285 285 285 284 284 284 284 284 284 284 284 283 283 283 283 283 283 282 281 280 280 281 283 284 283 281 280 281 281 281 281 281 281 282 282 282 282 283 283 283
292 291 291 290 290 290 291 291 291 291 291 290 290 290 290 289 289 288 288 288 288 288 287 287 287 287 287 287 287 287 287 286 286 286 286 286 285 285 285 284 284 284 284 284 284 284 284 284 284 284 284 284 284 284 283 283 283 283 283 283 282 282 282 281 280 279 279 281 283 283 281 279 279 280 280 280 280 280 280 281 281 281 282 282 283
291 291 290 290 290 290 290 291 291 291 291 290 290 290 289 289 289 288 288 288 288 287 287 287 287 287 287 287 287 287 287 286 286 286 286 285 285 284 284 284 284 284 284 284 284 284 284 284 284 284 284 284 284 283 283 283 283 283 282 282 282 281 281 280 279 278 278 279 281 282 280 278 277 279 279 278 279 279 279 280 280 281 282 282 283
291 290 290 290 290 290 290 291 291 290 290 290 290 289 289 289 288 288 288 288 287 287 287 287 287 287 287 287 287 287 286 286 286 286 285 285 284 284 284 284 284 284 284 284 284 284 284 284 284 284 284 283 283 283 283 283 282 282 282 281 281 280 280 279 278 277 277 277 278 280 279 277 276 277 278 278 278 278 279 279 280 280 281 281 281
290 290 289 290 290 290 290 290 291 290 290 290 289 289 289 289 288 288 288 287 287 287 287 287 287 287 287 287 287 286 286 286 286 285 284 284 284 284 284 284 284 284 284 284 284 284 284 284 284 283 283 283 283 282 282 282 282 281 281 281 280 280 279 279 278 277 277 277 276 277 277 276 276 276 277 277 277 277 278 278 278 278 278 279 279
290 289 289 289 290 290 290 290 290 290 290 290 289 289 289 288 288 288 288 287 287 287 287 287 287 287 287 287 286 286 286 285 285 284 284 284 284 283 284 284 284 284 284 284 284 284 283 283 283 283 283 283 282 282 281 281 281 281 281 280 279 279 278 278 277 277 276 275 275 275 275 275 275 275 276 276 276 276 277 277 277 277 277 277 278
290 289 289 289 290 290 290 291 290 290 290 289 289 289 288 288 288 288 287 287 287 287 287 287 287 287 287 286 286 286 285 285 284 284 283 283 283 283 283 283 283 283 283 283 283 283 283 283 283 283 282 282 282 281 281 280 280 280 280 279 278 278 277 277 276 275 275 274 274 274 274 274 274 274 275 275 275 275 276 276 276 276 277 277 277
289 289 289 289 290 290 290 290 290 290 290 289 289 289 288 288 288 288 288 288 287 288 288 287 287 287 286 286 286 286 285 284 284 283 283 283 283 283 283 283 283 283 283 283 283 283 283 283 282 282 282 282 281 281 280 280 279 279 278 278 277 277 276 276 275 274 274 273 273 274 274 274 274 274 274 275 275 275 275 276 276 276 276 276 276
289 289 289 289 290 290 290 290 290 290 290 289 289 288 288 288 288 288 288 288 288 288 287 287 287 287 287 286 286 285 285 284 283 283 283 283 283 283 283 283 283 283 283 283 283 283 282 282 282 282 281 281 281 280 280 279 279 278 278 277 276 276 275 275 274 274 273 273 273 274 274 274 274 274 275 275 275 275 275 276 276 276 276 276 276
289 289 289 289 290 290 290 290 290 290 289 289 289 288 288 288 288 288 288 288 288 288 287 287 287 287 287 286 286 285 284 283 283 282 282 282 282 283 283 283 283 283 283 283 282 282 282 282 282 281 281 280 280 280 279 279 279 278 278 277 276 275 275 274 274 273 273 273 274 274 274 274 274 275 275 275 275 275 275 276 276 276 276 277 277
289 289 289 289 290 290 290 290 290 290 289 289 288 288 288 288 288 288 288 288 288 287 287 287 287 287 287 286 286 285 284 283 282 282 282 282 282 282 282 282 282 282 282 282 282 282 282 281 281 281 280 280 280 279 279 279 278 278 278 277 276 275 275 274 274 274 274 274 274 274 274 275 275 275 275 275 276 276 276 276 276 276 276 277 277
290 289 289 289 289 290 290 290 290 290 289 289 288 288 288 288 288 288 288 288 288 287 287 287 287 287 286 286 286 285 284 283 282 282 282 282 282 282 282 282 282 282 282 282 282 281 281 281 281 280 280 280 279 279 278 278 278 278 277 276 276 275 274 274 275 275 275 275 275 275 275 275 275 276 276 276 276 276 276 276 276 277 277 277 277
290 289 289 289 289 290 290 290 290 290 289 288 288 288 288 288 288 288 288 288 287 287 287 287 287 286 286 286 286 285 284 283 282 282 282 282 282 282 282 282 282 282 282 282 281 281 281 280 280 280 279 279 279 278 278 278 277 276 275 275 274 274 274 275 275 275 275 276 276 276 276 276 276 276 277 277 277 277 277 277 277 277 277 277 276
290 289 289 288 289 290 290 290 290 289 289 288 288 288 288 288 288 288 288 287 287 287 287 287 286 286 286 286 286 285 284 282 282 282 281 281 282 282 282 282 282 282 281 281 281 281 280 280 279 279 279 279 279 278 277 276 275 274 274 274 274 274 274 275 276 276 276 276 276 276 277 277 277 277 277 278 278 278 278 278 277 277 277 276 276
291 290 289 288 289 289 290 290 290 289 288 288 288 288 288 288 288 288 288 287 287 287 287 286 286 286 286 286 286 285 283 282 282 281 281 281 281 281 281 282 281 281 281 281 280 280 280 279 279 279 279 279 278 277 276 275 274 275 275 274 275 275 275 276 276 276 276 276 277 277 277 277 278 278 278 278 278 278 277 277 276 276 276 276 276
292 291 290 289 288 289 290 290 290 289 288 288 288 288 288 288 288 288 288 287 287 287 286 286 286 286 286 285 285 285 284 282 281 281 281 281 281 281 281 281 281 281 280 280 280 279 279 279 278 278 278 278 277 276 275 275 275 275 275 275 275 276 276 276 276 276 276 276 276 277 277 277 277 277 277 277 277 277 276 276 276 276 276 276 276
294 293 291 289 288 288 289 290 290 289 288 288 288 288 288 288 288 288 288 287 287 286 286 286 285 285 285 285 285 285 283 282 281 281 281 281 281 281 281 281 280 280 280 279 279 279 278 278 277 277 276 276 275 275 275 275 275 275 275 275 275 275 275 275 276 276 276 276 276 276 276 276 276 276 276 276 276 276 276 276 275 276 276 276 276
294 293 291 289 288 288 289 290 290 289 288 288 288 288 288 288 288 288 288 287 287 286 286 286 285 285 285 285 285 284 283 282 281 281 281 281 280 280 280 280 280 279 279 278 278 278 277 277 276 276 275 274 274 274 274 274 274 274 274 274 274 274 274 274 274 274 274 275 275 275 275 275 276 276 276 275 275 275 275 275 275 275 275 275 275
294 293 290 289 288 288 290 291 290 289 288 288 288 288 288 288 288 288 287 287 286 286 286 285 285 285 285 285 285 284 282 281 281 281 281 281 280 280 280 279 279 278 278 278 277 277 276 275 275 275 274 274 274 274 274 274 274 274 274 274 273 273 273 273 274 274 274 274 274 274 275 275 275 275 275 275 275 275 275 275 275 275 275 275 275
293 291 290 289 289 289 290 291 290 289 288 288 288 288 288 288 288 288 287 287 286 286 286 285 285 285 285 285 284 283 282 281 281 281 281 280 280 279 279 279 278 278 277 277 276 275 274 274 274 274 274 274 275 274 274 274 274 274 274 274 273 273 273 274 274 274 274 274 274 274 275 275 275 275 275 275 275 276 276 276 276 275 275 275 274
292 291 290 290 290 291 291 290 289 289 289 288 288 288 288 288 288 287 287 287 286 286 286 285 285 285 285 285 284 283 281 280 280 280 280 280 280 279 279 278 278 277 277 276 275 274 274 274 274 274 274 274 274 274 274 274 274 274 274 274 274 274 274 274 274 274 274 274 274 274 274 274 274 274 275 275 275 276 276 276 275 275 275 275 274
292 291 291 291 291 291 291 290 289 289 289 288 288 288 288 288 287 287 287 287 286 286 286 285 285 285 285 284 284 283 281 280 280 280 280 280 279 279 278 277 277 277 276 275 274 273 274 274 274 273 273 274 274 274 274 274 274 274 274 274 274 274 274 274 274 273 273 273 273 274 274 274 273 273 273 273 274 275 275 275 275 275 275 275 275
291 291 291 291 291 290 290 290 289 289 289 288 288 288 288 287 287 287 287 286 286 286 285 285 285 285 284 284 283 282 281 280 280 280 280 279 279 278 278 277 277 276 275 274 273 274 274 274 273 273 273 274 274 274 274 274 273 273 273 273 273 273 273 273 273 273 273 273 273 273 273 273 273 273 273 273 273 274 274 274 275 275 275 274 274
291 291 291 290 290 290 290 290 289 289 289 288 288 288 287 287 287 287 287 286 286 286 285 285 285 285 284 284 283 282 281 280 280 280 279 279 278 278 277 277 276 276 275 274 274 274 275 274 273 273 273 273 273 273 273 273 273 273 273 273 273 273 273 273 273 272 272 272 272 272 273 273 273 273 273 273 273 274 274 273 273 274 273 273 273
291 291 291 290 290 290 290 290 289 289 289 289 288 287 287 287 287 286 286 286 286 285 285 285 285 285 284 284 282 281 280 279 279 279 279 279 278 277 277 277 276 275 274 274 275 275 275 274 273 273 273 273 273 273 273 273 273 273 273 273 273 273 273 272 272 272 272 272 272 272 272 272 272 272 272 273 273 273 273 272 271 272 272 272 272
291 291 291 290 290 290 290 290 289 289 289 288 288 287 287 287 286 286 286 285 285 285 285 285 284 284 284 283 282 281 279 279 279 279 278 278 277 277 276 276 275 274 273 273 273 274 274 273 273 273 273 273 273 273 273 273 273 273 273 273 273 273 273 272 272 272 272 272 271 271 272 272 272 272 272 272 272 273 272 271 270 271 271 271 272
291 291 291 290 290 290 290 290 289 289 289 288 287 287 286 286 286 285 285 285 285 285 285 284 284 284 284 283 282 280 279 279 278 278 278 278 277 276 276 275 274 273 272 272 272 273 273 273 273 273 273 273 273 273 273 273 273 273 273 273 273 273 272 272 272 272 272 271 271 271 271 271 271 271 271 271 272 272 272 271 271 271 271 271 271
291 291 290 290 290 290 290 289 289 289 288 288 287 286 286 285 285 285 284 284 284 284 284 284 284 284 283 282 281 279 278 278 278 278 278 277 276 275 275 274 273 272 272 272 273 273 273 272 272 273 273 273 273 273 273 273 273 273 273 273 273 272 272 272 272 272 272 272 272 271 270 270 270 270 270 271 271 272 272 272 271 271 271 270 271
291 290 290 290 290 290 289 289 289 288 287 287 286 285 285 285 284 284 284 284 284 284 284 284 284 283 283 282 280 279 278 278 278 277 277 276 275 275 274 274 273 272 273 273 273 272 272 272 272 272 272 272 272 272 272 272 272 272 272 272 272 272 272 272 272 272 272 272 272 271 270 269 269 269 270 270 270 271 271 271 271 271 270 270 270
290 290 290 290 289 289 289 288 288 287 286 285 285 285 284 284 284 283 283 284 284 283 283 283 283 283 282 281 280 279 278 277 277 276 276 275 275 274 274 273 272 273 274 273 272 272 272 272 272 272 272 272 272 272 272 272 272 272 272 272 272 271 271 271 271 272 272 273 272 270 269 269 268 268 269 269 269 269 270 270 270 270 270 270 270
290 290 290 289 289 288 288 287 287 286 285 284 284 284 283 283 283 283 283 283 283 283 283 283 283 282 281 279 278 277 277 276 276 276 275 275 274 274 273 272 273 274 274 272 272 272 272 272 272 272 271 271 271 271 271 271 271 271 271 271 271 271 271 271 271 271 272 272 271 270 269 268 268 268 268 268 268 268 269 269 270 270 269 269 269
290 289 289 289 288 288 287 287 286 285 284 283 283 283 282 282 282 282 283 283 283 283 283 282 282 281 280 279 277 276 276 276 275 275 275 275 274 273 272 273 273 273 273 272 271 272 271 272 271 271 271 271 271 271 271 271 271 271 271 271 271 271 271 270 270 271 271 272 272 270 269 268 268 267 267 268 268 268 268 269 269 269 268 268 269
289 289 289 288 288 288 287 286 285 284 283 282 282 282 281 282 282 282 282 282 282 282 283 282 281 280 279 278 277 276 276 275 275 274 274 274 273 272 272 273 273 273 272 272 271 271 271 271 271 271 270 271 271 271 271 271 271 271 271 271 271 271 271 270 270 270 270 271 271 271 270 268 268 268 267 268 268 268 269 269 269 268 268 268 268
289 289 288 288 287 287 286 285 284 283 282 281 281 281 281 281 282 282 282 282 282 282 282 281 280 278 277 276 276 275 275 275 274 274 274 273 272 272 272 272 272 272 272 271 271 271 271 271 271 270 270 270 270 270 270 270 271 271 271 271 271 271 271 270 270 270 270 270 271 271 270 269 268 268 268 268 268 269 269 269 269 269 269 269 269
288 288 288 287 286 286 285 284 283 282 281 280 280 280 281 281 281 281 281 281 281 281 280 279 278 277 276 275 275 274 274 274 274 273 273 272 272 272 272 272 272 272 271 271 271 271 271 271 271 270 270 270 270 270 270 270 270 270 270 270 270 270 270 270 270 270 270 270 270 270 271 270 269 268 268 269 269 269 269 269 269 270 270 269 269
288 287 287 286 285 285 283 282 281 280 280 280 280 280 281 281 281 280 281 281 281 280 279 278 277 276 275 274 274 274 273 273 273 273 272 271 271 272 271 271 271 271 271 271 270 270 270 270 270 270 270 270 270 270 270 270 270 270 270 270 270 270 270 270 270 270 269 269 269 269 270 270 270 269 269 269 269 269 269 270 270 270 270 270 270
287 287 286 285 284 283 282 281 280 279 279 280 280 280 280 280 280 280 280 280 279 278 277 277 276 275 274 274 273 273 272 272 272 272 271 271 271 271 271 271 271 271 271 270 270 270 270 270 270 270 270 270 270 269 270 270 270 270 270 270 270 270 270 270 270 269 269 269 269 269 270 270 270 269 269 269 269 269 270 270 270 270 270 270 270
286 285 285 284 283 282 281 280 279 279 279 280 280 280 280 280 279 279 278 278 277 276 275 275 274 274 273 273 272 272 271 271 271 271 271 271 271 271 270 270 271 271 270 270 270 270 270 270 270 270 270 270 270 269 269 269 270 270 270 270 270 270 270 270 269 269 269 269 269 269 269 269 269 269 269 269 269 270 270 270 270 270 270 270 270
285 284 283 282 281 280 280 279 279 279 280 279 279 279 279 278 278 277 276 276 275 274 274 274 273 273 272 272 271 271 270 270 270 270 270 270 270 270 270 270 270 270 270 269 269 269 270 270 270 270 270 270 269 269 269 269 269 269 270 270 270 270 270 270 269 269 269 268 268 268 269 269 269 269 269 269 269 270 270 270 270 270 270 270 270
283 282 282 281 280 280 280 280 280 280 279 279 278 278 277 276 276 275 274 274 273 273 273 272 272 272 271 271 270 269 269 269 269 269 269 270 270 269 269 269 269 269 269 269 269 269 269 270 270 270 269 269 269 269 269 269 269 269 269 270 270 270 269 269 269 269 268 268 268 268 268 268 269 269 268 268 269 269 270 270 270 270 270 270 270
282 281 281 280 280 280 280 280 279 279 278 278 277 276 275 275 274 274 273 273 272 272 271 271 271 270 270 269 269 268 268 268 268 268 269 269 269 269 269 269 269 269 269 269 269 269 269 269 269 269 269 269 269 269 269 269 269 269 269 269 269 269 269 269 268 268 268 268 268 268 268 268 268 268 268 268 268 269 269 270 270 270 270 270 270
281 280 280 280 280 279 279 279 278 278 277 276 275 275 274 273 273 272 272 271 271 270 270 270 269 269 268 268 268 267 267 267 268 268 268 269 269 269 269 269 269 269 269 269 269 269 269 269 269 269 269 269 269 269 269 269 269 269 269 269 269 269 268 268 268 267 267 267 267 267 267 268 268 268 268 268 268 268 269 269 269 270 270 270 270
280 279 279 279 278 278 278 277 276 276 275 274 274 273 273 272 271 271 270 270 269 269 269 268 268 267 267 267 267 267 267 267 267 268 268 268 268 268 268 268 268 268 269 269 269 269 269 268 268 269 269 269 269 269 269 269 269 268 268 268 268 268 267 267 267 267 267 267 267 267 267 267 268 268 268 268 268 268 268 269 269 269 270 270 270
279 278 278 277 277 276 276 275 274 274 273 273 272 272 271 271 270 270 269 268 268 267 267 267 266 266 266 266 266 266 266 266 267 267 267 268 268 268 268 268 268 268 268 268 268 268 268 268 268 268 268 268 268 268 268 268 268 268 267 267 267 267 267 266 266 266 266 266 266 266 267 267 267 268 268 267 267 268 268 268 269 269 269 270 270
277 277 276 276 275 274 274 273 273 272 272 271 271 270 270 270 269 268 268 267 267 266 266 266 266 266 266 266 266 266 266 266 266 267 267 267 267 267 267 268 268 268 268 268 268 268 267 267 267 267 267 267 267 267 267 267 267 267 267 267 267 267 266 266 266 266 266 266 266 266 266 267 267 267 267 267 267 267 267 268 268 269 269 269 270
275 275 274 274 273 273 272 272 272 271 271 270 270 269 269 268 268 268 267 267 266 266 266 266 266 266 266 266 266 266 266 266 266 266 266 266 266 267 267 267 267 267 267 267 267 267 267 267 267 267 267 267 267 267 267 267 267 267 267 267 267 267 266 266 266 266 266 266 266 266 266 266 267 267 267 266 266 267 267 267 268 268 269 269 269
274 274 273 273 272 272 271 271 271 270 270 269 269 269 268 268 267 267 267 266 266 266 266 266 266 266 266 266 266 266 266 266 266 266 266 266 266 266 266 266 266 267 267 267 267 267 267 267 266 266 266 267 267 267 267 267 267 267 267 267 267 266 266 266 266 266 266 266 266 266 266 266 266 266 266 266 266 266 267 267 267 268 268 269 269
273 273 272 272 271 271 271 270 270 270 269 269 268 268 268 267 267 267 267 267 266 266 266 266 266 266 266 266 266 266 266 266 266 266 266 266 266 266 266 266 266 266 267 267 267 266 266 266 266 266 266 267 267 267 267 267 267 267 267 267 267 266 266 266 266 266 266 265 265 265 266 266 266 266 266 266 266 266 266 267 267 267 268 268 268
272 272 271 271 270 270 270 270 269 269 269 268 268 268 268 268 267 267 267 267 266 266 266 266 266 266 266 266 266 266 266 266 266 266 266 266 266 266 266 266 266 266 266 266 266 266 267 267 267 267 267 267 267 267 267 267 267 267 267 267 267 266 266 266 266 266 266 265 265 265 265 266 266 266 266 266 266 266 266 266 267 267 267 267 268
Wind_Speed
19 19 18 16 15 13 12 11 10 9 9 7 6 5 4 5 7 8 10 12 13 14 16 17 18 18 19 20 20 21 21 21 21 21 21 21 21 21 21 22 23 24 25 26 27 27 27 27 28 28 29 30 31 31 32 33 34 35 35 36 37 34 31 30 32 43 53 51 50 46 34 33 39 35 33 39 41 40 40 39 37 37 40 43 44
21 20 18 17 16 15 13 13 12 11 9 8 6 5 5 6 7 9 10 12 13 15 16 17 18 18 19 20 21 22 23 23 23 23 23 22 22 22 23 23 24 25 26 27 27 27 27 28 28 29 29 30 31 31 33 34 34 35 35 35 37 37 34 33 33 39 49 53 53 50 38 31 37 35 29 34 39 39 39 40 40 38 37 37 38
21 20 20 19 17 16 15 14 13 12 10 8 6 6 6 7 8 10 11 12 14 15 16 17 18 19 21 22 23 23 24 24 24 23 23 23 22 23 23 24 25 26 26 27 27 27 27 27 28 28 29 30 31 32 33 34 34 35 37 36 37 39 37 35 34 35 43 51 52 52 43 33 36 39 34 32 35 34 35 38 38 38 37 36 36
23 22 21 20 18 17 16 15 14 12 10 8 7 6 7 7 9 10 12 13 14 15 16 18 19 20 22 23 24 24 24 24 24 23 23 22 22 22 23 24 25 26 26 26 26 26 26 27 28 28 30 31 32 33 33 34 36 36 37 38 38 39 39 37 35 35 39 47 51 51 46 37 36 40 36 33 34 32 31 34 36 37 37 35 33
24 24 22 21 20 19 18 16 14 12 10 8 7 7 7 8 10 11 12 14 15 16 17 18 20 21 22 23 24 24 24 24 23 23 22 22 22 23 23 24 25 26 26 26 26 26 27 27 28 29 31 32 32 33 34 34 36 36 37 38 38 38 38 37 36 35 36 42 47 49 47 40 36 39 37 34 35 33 30 31 32 31 31 29 27
26 25 24 22 21 20 19 17 15 12 10 9 8 7 7 9 10 12 13 14 16 17 18 19 20 21 22 23 24 24 24 24 23 23 22 22 23 23 24 24 25 25 25 26 26 27 27 28 29 30 31 33 33 33 34 35 35 36 37 37 37 37 37 36 35 35 36 38 42 46 46 40 34 36 35 30 30 30 28 29 28 25 26 29 31
28 27 25 23 22 21 19 17 15 13 11 10 8 7 8 10 11 12 14 15 16 18 19 20 21 22 23 23 24 24 24 23 23 23 23 23 23 24 24 24 25 25 25 25 26 26 27 28 30 31 32 33 33 33 34 34 35 36 36 36 36 36 37 37 36 36 36 37 39 41 43 39 31 30 33 32 31 28 25 27 29 28 28 31 32
29 28 26 25 23 22 20 18 15 14 12 10 8 8 9 10 12 13 14 16 17 19 20 21 21 22 23 23 23 23 23 23 23 23 23 24 24 24 25 24 25 25 25 25 26 26 28 29 30 31 32 32 32 32 32 33 34 35 35 35 35 35 35 36 36 36 35 35 37 37 38 37 31 28 32 34 32 28 24 25 29 29 28 28 30
31 30 28 27 25 23 21 19 16 14 12 10 9 9 10 11 12 13 15 17 18 19 20 21 22 22 23 23 23 23 23 22 22 23 23 24 24 24 25 25 25 25 25 25 26 27 28 30 31 31 32 32 31 31 31 31 32 34 34 33 33 33 34 34 34 34 33 33 35 34 33 32 29 27 31 32 30 28 26 25 26 27 26 28 30
32 31 30 28 26 24 22 19 17 15 13 11 10 10 11 12 12 14 15 17 19 20 21 21 22 23 23 23 23 23 23 22 22 23 23 24 25 25 25 26 25 26 26 26 27 28 29 30 31 32 32 32 31 31 30 30 31 32 32 31 31 30 31 32 31 30 30 30 30 29 28 28 27 27 30 31 30 28 25 23 25 26 26 29 30
34 33 32 30 27 24 22 20 18 16 14 12 11 12 12 12 12 14 16 18 19 20 21 22 22 23 23 23 23 22 22 22 22 23 23 24 25 25 26 26 26 26 27 27 28 29 30 31 32 32 32 32 31 30 30 30 30 30 30 29 28 28 27 28 27 26 26 28 28 27 27 29 29 27 27 29 30 27 24 23 25 26 27 29 30
36 35 33 31 28 25 24 21 19 17 15 13 13 13 12 12 13 14 16 18 20 20 21 22 22 23 23 23 23 22 22 23 22 23 24 24 25 26 26 26 27 27 28 28 29 31 32 33 33 32 32 31 31 30 30 30 30 30 29 28 28 27 25 23 24 25 27 30 31 31 30 31 31 28 27 29 29 27 26 26 25 26 30 32 33
37 36 35 32 29 26 25 23 20 18 16 14 14 13 13 12 13 14 16 18 19 20 21 22 22 23 24 23 23 23 22 23 23 23 24 24 25 25 26 27 27 28 29 29 30 31 32 33 33 33 32 31 30 30 30 30 30 29 28 28 28 28 27 24 22 24 26 30 33 34 32 31 32 31 31 31 32 32 32 31 30 32 36 37 37
38 37 36 33 30 27 25 24 22 19 16 15 15 14 13 13 13 14 16 17 19 20 21 22 23 24 24 25 24 23 23 23 24 24 24 24 25 26 26 27 28 29 29 30 31 32 32 33 33 33 32 31 30 29 29 29 30 30 29 30 30 31 31 27 24 24 26 29 33 35 34 34 36 37 36 34 35 37 37 36 36 38 40 40 40
38 38 37 34 31 29 27 26 23 20 17 17 16 14 13 13 13 14 16 18 20 21 22 23 24 25 25 26 25 24 23 24 24 24 24 24 25 26 27 27 29 30 30 31 32 32 33 33 33 33 32 31 30 28 28 28 28 30 30 32 34 35 34 32 29 30 32 34 36 39 39 38 39 40 39 37 38 39 39 38 38 38 40 42 42
38 38 37 35 32 30 29 27 24 20 19 19 17 15 14 14 14 15 16 18 20 22 23 24 25 25 26 26 26 25 24 24 25 25 25 25 26 27 27 28 29 30 31 32 33 33 34 34 33 33 32 32 30 27 25 26 28 30 32 34 36 37 38 38 37 37 37 36 37 38 38 37 37 37 37 37 37 37 37 37 37 36 38 40 40
38 38 37 36 34 33 31 28 25 22 21 20 18 16 16 15 15 16 18 20 21 22 24 24 25 25 26 27 27 26 24 24 25 25 25 26 26 27 28 29 30 31 32 33 33 33 34 33 32 32 33 32 30 27 24 25 28 31 33 35 38 40 42 43 42 39 37 36 34 33 33 33 33 33 33 32 33 34 36 38 38 36 37 39 38
36 36 37 37 36 34 31 28 26 24 22 21 19 18 17 16 17 18 19 21 22 23 24 25 25 25 26 27 27 27 26 25 25 26 26 26 26 27 28 30 31 32 33 33 33 34 34 33 31 31 32 32 30 26 24 25 28 31 33 37 40 42 42 41 38 36 35 36 35 33 33 32 33 34 34 34 37 37 36 37 36 35 36 37 37
34 35 36 36 36 35 32 30 28 25 23 21 20 20 19 18 19 20 21 22 23 23 24 25 25 26 26 27 27 27 27 25 25 26 26 26 26 27 28 30 31 32 33 33 34 34 33 32 31 30 29 28 26 25 25 26 28 31 33 36 39 40 38 35 34 34 36 39 38 38 39 39 40 42 41 39 40 38 34 34 32 31 33 35 36
30 31 33 34 35 35 33 31 29 26 24 23 23 22 21 21 21 21 22 23 23 23 24 25 26 26 27 27 27 27 27 26 26 26 26 26 26 26 28 30 31 31 32 33 33 33 32 31 31 29 27 26 26 27 27 27 28 31 32 34 37 38 37 35 35 35 39 42 43 43 44 43 42 42 40 37 36 34 33 32 30 29 30 32 34
27 28 30 32 33 34 34 32 30 28 26 26 26 25 24 23 23 22 23 24 24 24 24 25 27 27 27 28 27 27 27 27 26 26 25 26 25 26 27 29 29 30 31 31 31 31 30 29 28 27 27 27 28 28 28 28 28 30 32 33 35 35 34 35 37 38 40 43 42 41 39 37 35 35 33 32 32 31 31 31 30 30 30 29 31
24 26 28 30 32 33 34 33 32 31 29 29 28 27 26 25 24 23 24 25 24 24 25 26 27 29 28 28 27 27 27 27 26 26 26 26 26 26 27 27 27 28 29 30 30 29 27 27 28 28 27 28 28 29 29 29 29 29 31 32 33 33 33 35 37 37 37 38 38 37 35 33 32 31 30 29 29 29 29 31 31 32 32 30 29
23 25 27 29 31 33 34 34 34 33 32 31 31 30 28 27 26 25 25 25 25 25 25 26 28 29 30 29 28 27 27 27 26 26 26 26 26 25 25 26 25 25 27 28 27 25 26 28 29 28 27 27 28 28 28 28 28 29 30 31 32 33 34 35 34 33 34 34 35 35 34 32 30 30 29 28 28 28 29 31 32 33 33 31 29
24 26 28 29 31 32 34 35 36 35 35 34 34 33 31 30 28 27 26 26 26 26 26 27 28 29 30 30 29 28 27 26 25 25 26 27 26 25 25 24 23 23 24 24 23 25 29 29 27 26 27 27 27 27 26 26 27 28 29 29 31 31 31 31 31 31 31 31 32 32 32 32 31 30 29 29 29 29 30 31 32 32 31 30 29
27 27 28 29 31 32 34 36 37 38 38 38 37 36 34 32 30 28 27 27 27 27 27 28 28 29 31 31 30 29 28 27 26 25 26 26 26 25 24 23 23 22 22 22 24 27 28 27 25 25 26 25 25 26 26 26 26 26 26 26 27 27 28 27 28 28 28 28 29 30 30 30 30 30 30 30 30 31 31 30 30 30 29 29 28
29 29 30 31 31 33 35 37 38 39 40 40 40 39 37 33 31 30 29 28 28 28 28 28 29 30 31 31 30 30 29 28 26 26 26 26 26 25 24 23 23 22 22 23 26 28 26 25 24 25 25 24 24 25 25 25 25 24 23 23 23 24 25 26 26 26 27 27 27 28 28 28 28 29 29 29 29 29 28 27 28 28 28 28 29
31 32 32 32 33 34 36 38 39 40 42 42 42 41 38 35 32 32 31 29 28 28 29 29 29 31 32 33 32 30 30 29 27 26 26 26 25 25 24 23 22 22 23 25 28 28 26 24 24 24 23 23 22 22 23 24 23 22 22 22 22 22 24 25 26 26 25 25 26 26 26 26 26 26 26 27 27 27 25 24 25 27 27 27 29
34 34 35 35 36 36 37 39 40 41 42 43 43 42 39 36 35 33 31 30 29 29 30 30 30 31 32 33 32 31 31 29 28 26 26 26 25 24 24 22 21 21 23 26 29 29 26 24 23 23 23 22 21 20 21 21 21 21 21 21 21 22 23 25 26 26 25 25 24 24 24 23 24 24 24 25 25 25 25 24 24 25 26 26 28
36 37 38 39 39 40 40 41 41 41 42 43 43 42 39 37 36 34 32 30 30 30 31 31 31 31 33 34 33 32 32 30 28 27 26 25 23 22 22 22 19 18 20 24 28 28 26 23 23 23 22 21 20 20 20 19 19 20 21 21 21 22 24 26 27 27 26 24 23 22 22 23 23 24 24 25 25 25 25 24 24 25 25 24 25
37 39 40 41 41 42 42 43 43 42 43 42 42 40 39 38 37 35 32 30 30 30 31 31 31 32 34 34 33 32 31 30 28 27 27 25 23 22 22 21 17 16 21 26 27 26 24 22 22 22 21 20 20 20 19 19 19 20 20 21 22 22 24 25 27 26 25 23 22 23 24 25 26 26 25 26 26 25 25 25 25 26 26 25 24
38 39 40 40 41 41 42 43 43 42 42 41 40 39 39 38 37 35 33 31 30 31 31 31 32 33 35 34 33 32 32 30 28 27 27 26 25 23 22 19 18 20 25 27 25 23 22 22 22 20 20 20 20 19 19 19 19 20 21 21 22 22 23 24 26 26 25 23 23 24 25 26 27 27 27 28 28 27 26 26 26 26 26 25 25
38 39 39 40 40 40 41 41 41 40 39 38 38 38 38 38 36 34 32 31 31 32 31 31 32 34 35 34 34 33 32 30 28 27 26 25 25 24 21 19 21 25 25 24 23 22 21 21 21 19 19 19 19 19 19 19 19 20 20 21 22 22 23 24 25 26 25 24 24 24 25 26 27 28 29 29 30 29 29 28 28 28 27 27 26
37 38 38 39 39 39 39 38 38 37 37 36 37 38 37 36 34 33 32 32 32 32 32 31 32 34 34 33 32 32 31 30 29 28 27 26 25 23 21 22 25 25 23 21 22 21 20 20 20 19 18 19 19 19 18 18 19 19 19 20 21 22 23 23 24 25 25 25 23 23 24 25 26 27 29 29 29 29 30 30 29 28 27 27 28
35 36 36 36 36 36 36 35 35 34 34 35 36 36 35 34 33 33 33 33 33 33 33 32 33 33 34 33 32 30 30 30 29 28 27 27 25 23 23 25 26 24 22 21 21 21 20 20 19 18 18 19 19 19 18 18 18 19 19 19 20 21 22 23 23 24 25 25 23 23 23 25 26 27 29 29 29 29 30 30 29 28 27 27 28
34 34 35 35 35 34 34 34 33 33 33 34 34 34 34 33 33 33 33 33 33 33 33 33 32 33 34 34 33 31 30 29 29 28 27 26 25 25 27 26 24 23 23 22 20 20 20 20 19 18 19 19 19 19 18 18 18 18 19 19 20 21 22 23 23 24 24 24 24 23 23 24 25 27 28 29 29 29 29 29 29 28 28 28 28
34 34 34 34 33 32 32 32 32 32 33 33 33 32 33 33 33 33 33 33 33 33 34 33 32 32 33 33 33 32 31 30 29 29 27 26 26 29 29 25 23 23 23 22 21 20 20 19 19 19 19 19 20 19 19 19 19 19 19 19 20 21 22 23 24 24 24 24 25 24 23 23 25 27 28 30 30 30 30 30 29 29 29 28 28
33 33 32 31 30 30 30 30 31 31 31 31 31 31 32 32 33 33 33 33 34 34 34 33 32 32 32 32 31 32 31 31 30 29 27 26 28 30 28 24 23 24 23 22 21 20 20 20 19 20 20 20 20 20 19 19 20 20 19 20 20 21 22 23 24 24 25 25 24 24 24 23 24 26 28 29 30 30 30 30 29 30 29 28 28
31 31 31 29 28 28 28 28 28 29 29 30 31 31 32 32 32 33 33 33 34 35 35 34 33 32 31 30 30 30 31 31 31 30 27 27 30 30 26 23 23 24 23 22 21 21 20 20 20 20 20 21 20 20 21 20 21 21 21 21 21 21 21 22 23 24 24 25 25 25 24 23 24 25 27 28 29 30 31 30 29 29 29 29 29
30 30 29 28 27 27 27 27 27 28 28 29 30 30 31 32 32 32 33 34 35 35 35 34 33 31 29 29 29 29 30 31 31 30 28 28 30 30 26 23 24 25 24 22 22 21 21 21 20 20 20 21 21 21 21 21 22 22 22 22 22 22 22 22 23 24 24 25 25 25 25 24 23 24 26 27 29 29 30 30 30 29 29 29 29
28 27 26 25 25 25 25 25 26 27 27 28 29 30 31 32 32 32 33 34 34 34 34 34 33 31 29 28 28 29 30 31 30 29 28 28 29 28 25 23 24 25 24 23 22 22 22 21 21 21 21 21 21 22 22 22 23 23 22 23 23 23 23 23 23 24 25 25 25 25 25 24 24 24 25 27 27 28 29 30 30 29 29 28 28
25 24 23 23 23 23 23 24 25 26 27 28 29 30 31 31 31 32 33 33 34 33 33 33 32 30 28 28 27 29 31 31 30 28 27 27 27 26 24 23 24 25 25 23 23 23 22 22 21 21 21 21 22 22 23 23 23 23 24 24 24 24 24 24 24 24 25 25 25 25 25 25 24 24 25 26 27 27 27 28 29 29 29 29 29
22 21 21 21 22 22 23 24 26 27 28 29 29 29 30 30 31 32 32 33 33 33 33 33 32 30 28 27 27 28 30 31 30 28 26 25 24 23 23 23 24 25 25 24 24 23 23 23 22 22 21 22 22 23 23 24 24 24 25 25 25 26 25 25 24 25 25 26 26 25 25 25 23 23 23 24 26 26 27 27 28 28 29 29 29
20 20 20 21 22 23 25 26 27 27 27 28 28 28 29 30 30 31 32 32 32 32 32 31 30 29 27 26 26 27 29 30 29 27 25 23 23 22 22 22 23 24 24 24 24 24 23 23 23 23 23 23 23 23 24 24 25 26 26 27 27 27 26 26 26 25 25 26 26 26 25 25 23 22 22 23 24 26 26 26 27 28 28 29 29
20 20 21 22 23 24 25 26 26 27 27 27 28 28 29 29 30 31 31 31 31 30 30 29 29 27 26 25 25 26 27 27 27 26 25 23 22 22 21 21 22 23 23 23 23 23 24 24 24 24 24 24 24 24 24 25 26 26 27 28 28 28 27 26 26 26 25 26 26 26 26 25 24 22 21 22 23 25 26 26 26 27 27 27 28
20 21 22 23 23 24 24 24 25 26 26 27 28 28 28 29 29 28 28 28 28 27 27 26 25 25 24 23 23 24 25 25 25 25 24 23 22 21 21 21 21 22 22 22 22 23 24 24 25 25 25 25 24 25 25 26 26 27 27 28 28 28 27 26 26 25 25 25 26 26 26 26 24 23 21 21 22 24 25 25 26 26 26 27 26
21 21 21 22 22 23 23 24 25 25 26 26 26 26 26 25 25 24 24 24 24 24 23 23 22 22 22 22 22 22 22 23 23 23 23 22 22 21 21 21 21 21 22 22 22 23 23 24 25 25 25 25 24 24 25 25 26 26 27 27 27 26 26 25 25 25 24 23 24 25 26 25 24 23 21 21 22 23 24 24 24 24 25 25 25
20 21 21 22 22 23 23 24 24 24 23 23 22 21 21 20 19 19 19 19 19 20 19 19 19 19 20 20 20 20 21 21 21 21 21 21 21 21 21 21 21 21 22 22 22 23 23 24 24 25 25 24 24 24 24 25 25 26 26 25 25 24 24 24 24 23 23 22 23 24 24 25 24 22 20 21 22 23 23 23 23 23 23 23 23
20 20 21 21 22 22 22 21 20 19 18 17 16 16 15 15 15 15 15 15 16 17 17 17 18 18 19 19 19 19 20 20 20 21 21 20 20 20 20 21 21 21 22 21 21 22 23 23 24 24 24 24 24 24 24 24 25 25 25 24 24 23 23 23 23 22 21 21 22 23 23 23 22 20 19 20 21 22 22 22 22 22 21 21 21
19 20 20 20 19 19 18 17 15 14 13 13 12 11 11 11 12 12 13 14 14 15 16 17 17 18 18 18 18 19 19 20 20 20 20 20 19 19 19 20 20 21 21 21 21 21 22 22 22 23 23 23 24 24 24 24 24 24 23 23 23 23 22 22 22 22 21 21 21 22 23 22 20 18 18 19 20 21 21 20 20 20 20 20 19
17 17 17 16 16 15 14 13 12 11 11 10 10 10 10 11 11 12 12 13 14 15 15 16 17 17 17 18 18 18 18 18 18 18 18 18 18 18 19 19 20 20 20 20 19 19 20 20 21 21 22 23 23 24 24 24 24 23 23 22 22 21 21 21 21 21 20 20 21 22 22 21 18 16 16 17 19 19 19 19 18 19 19 18 18
15 14 13 13 12 11 11 10 10 10 10 10 10 11 11 11 12 12 13 13 14 14 15 15 16 16 16 16 16 17 17 17 17 17 17 17 17 17 18 18 18 18 18 18 18 18 19 20 20 21 22 23 24 24 25 24 24 24 24 23 22 21 21 21 21 20 19 20 21 22 22 21 18 17 16 16 17 18 18 18 17 17 17 17 17
Wind_Direction
206 205 203 200 201 204 207 210 214 219 224 227 235 249 272 298 316 325 330 332 333 334 333 333 333 332 331 330 330 331 330 330 331 330 330 330 329 328 328 328 329 329 329 329 328 327 327 327 327 327 327 326 326 325 325 324 323 322 321 320 319 316 313 308 301 303 308 309 308 307 307 307 307 306 307 305 304 305 303 302 302 302 304 304 301
208 207 206 205 206 209 211 215 217 220 224 228 238 257 283 304 316 324 329 331 331 330 329 329 329 329 329 329 329 329 329 329 329 328 328 328 327 327 327 327 328 328 328 327 327 327 326 326 326 326 326 325 324 324 323 323 321 320 319 317 316 314 312 309 304 303 305 308 308 306 306 307 305 304 305 303 302 303 302 302 303 303 304 304 303
211 210 209 209 210 212 215 217 219 221 224 231 245 266 288 305 317 325 329 330 328 327 327 327 327 329 329 329 329 328 327 327 326 326 326 325 325 325 325 326 327 327 327 326 326 325 325 325 325 325 324 323 323 323 322 322 320 319 318 316 315 313 312 309 306 302 302 304 306 305 305 307 304 303 306 304 302 303 302 302 302 301 301 300 299
212 213 212 211 212 214 216 217 219 222 226 236 252 270 290 308 319 325 328 327 326 325 325 326 327 328 328 328 327 326 325 324 323 323 323 322 322 322 323 325 325 326 325 325 324 324 324 325 324 323 323 322 323 322 322 321 319 319 317 316 315 313 312 309 306 303 301 302 303 303 303 306 305 305 307 307 305 304 304 303 303 303 303 304 304
214 214 213 212 213 215 217 218 221 224 231 241 255 273 294 310 318 323 325 324 323 323 322 323 324 325 326 326 326 324 322 321 320 320 320 320 320 320 322 323 324 325 324 323 324 324 324 324 323 323 323 322 322 322 321 320 319 318 317 316 314 313 311 309 306 303 300 300 302 302 302 306 307 307 309 311 310 309 308 307 306 307 308 307 304
215 215 214 214 215 216 218 220 223 227 234 244 257 275 295 309 316 320 321 321 321 320 320 321 323 324 325 325 324 322 320 319 318 318 318 317 318 319 320 322 323 323 323 322 323 323 323 323 323 323 323 322 322 322 321 319 318 317 316 314 313 311 309 306 304 303 301 300 301 302 304 307 311 311 311 313 313 313 313 311 308 306 303 300 298
216 216 216 216 216 218 220 222 225 230 236 244 258 276 294 306 313 315 317 318 318 319 320 321 323 324 325 324 322 321 319 317 317 317 316 316 316 317 319 321 321 321 321 321 322 322 322 322 322 322 322 322 322 322 320 318 316 315 314 313 311 309 308 307 306 305 305 304 304 304 306 309 312 311 311 312 311 310 311 310 308 305 303 302 302
218 217 217 217 218 219 222 224 227 231 236 244 257 275 292 302 308 311 314 315 317 319 321 323 323 324 323 322 321 319 317 316 315 315 315 314 314 316 317 318 319 319 319 320 320 321 321 321 321 321 321 321 322 321 319 317 315 314 313 313 312 311 310 310 309 308 307 306 306 307 308 309 311 312 314 316 314 311 311 309 307 308 309 307 304
220 219 219 218 219 221 223 226 229 231 235 244 257 273 287 297 304 309 312 314 317 320 321 322 323 323 323 322 320 318 316 314 314 313 313 312 312 313 315 316 317 317 318 318 319 320 321 320 321 321 320 321 321 319 318 315 314 313 313 313 312 312 312 311 310 309 309 308 308 310 310 310 311 314 317 318 315 312 312 309 307 308 310 307 306
221 221 220 220 221 222 224 227 229 231 235 244 257 271 283 294 302 308 312 315 317 319 321 322 323 323 324 323 320 317 314 312 312 312 311 311 311 312 313 314 316 316 316 317 318 319 320 320 320 320 320 320 320 319 317 315 313 312 312 312 312 313 312 311 310 310 310 308 308 309 308 305 308 311 313 315 315 311 308 308 308 309 309 308 310
222 222 222 222 223 223 225 227 229 232 236 245 257 269 280 291 301 307 311 313 315 318 319 321 323 323 323 322 319 315 312 310 310 310 310 309 309 310 311 313 313 314 314 315 317 318 319 319 319 320 320 320 319 318 316 314 313 312 311 310 310 310 310 310 309 309 307 304 303 303 301 299 303 305 304 308 312 309 304 304 305 306 308 308 309
223 223 223 224 224 223 225 228 230 233 237 246 257 267 277 288 299 306 308 310 312 316 318 320 322 321 320 320 317 313 310 309 309 308 307 307 307 308 309 310 311 312 313 315 316 318 318 319 319 319 319 320 319 318 316 314 313 312 310 308 305 305 308 308 306 303 300 299 298 297 296 296 297 298 298 303 306 303 299 299 298 301 305 305 304
225 225 225 225 224 223 226 229 232 234 238 247 257 264 275 286 296 301 304 307 310 314 317 318 319 318 317 317 315 311 308 307 307 307 305 305 305 305 306 308 309 310 313 315 316 317 317 317 317 318 319 320 319 319 316 314 313 310 307 305 304 308 313 312 306 300 297 297 295 295 295 295 294 295 300 304 303 301 299 296 296 299 301 302 301
227 228 227 226 224 224 228 231 233 235 239 248 255 262 272 282 290 296 301 306 310 312 314 315 315 315 315 314 313 310 307 305 305 305 304 303 303 303 305 307 309 310 313 314 315 316 316 315 316 317 319 320 320 319 315 313 312 310 310 311 314 317 317 315 313 310 307 304 300 298 298 296 295 298 302 302 299 299 299 296 296 300 301 301 300
230 230 229 227 225 226 230 233 234 236 241 247 253 258 267 275 283 291 298 304 307 309 310 311 312 312 312 312 312 309 306 305 304 304 302 301 301 302 305 307 308 310 312 313 314 314 314 314 316 318 318 319 320 318 316 317 317 316 316 317 317 315 313 315 317 314 311 306 302 301 302 301 300 299 300 300 298 297 297 296 297 300 301 301 300
231 231 230 228 226 228 232 235 235 237 241 246 249 254 261 269 277 286 294 300 303 306 307 308 309 309 310 311 310 309 306 304 303 302 301 301 301 303 305 306 308 309 311 313 313 313 314 315 316 317 318 319 320 321 323 323 319 317 316 313 311 310 310 314 315 310 308 305 301 300 301 300 297 295 295 296 295 295 295 295 297 300 300 300 298
233 234 233 230 227 229 234 236 237 238 241 245 247 251 257 265 273 282 290 296 300 304 305 306 307 308 310 310 309 307 305 302 301 301 300 301 302 303 305 307 308 310 311 312 313 313 313 314 316 317 317 319 323 327 328 320 312 310 310 308 308 309 308 310 311 308 307 306 301 296 294 290 288 288 289 289 289 291 292 293 297 299 297 296 295
236 236 235 232 229 230 235 238 238 239 242 244 246 250 256 262 270 278 286 293 298 302 304 305 306 308 309 309 308 305 302 301 300 299 299 301 302 304 306 307 308 310 311 312 312 312 312 314 316 318 319 322 326 326 320 311 305 305 306 307 307 307 306 308 309 307 306 303 298 293 288 285 285 287 288 288 291 295 293 292 296 297 294 293 293
235 236 235 233 231 232 237 240 239 239 242 244 245 249 255 261 268 275 282 289 294 299 303 305 306 306 307 308 306 303 300 299 299 298 299 300 302 304 306 306 308 310 311 311 311 311 312 315 317 319 321 322 320 315 309 307 306 306 306 305 303 301 302 304 304 303 300 296 292 289 286 286 288 290 291 291 294 296 294 291 293 293 290 290 290
236 236 236 234 232 233 238 240 239 239 243 244 244 249 254 259 264 270 278 285 290 297 302 304 304 304 306 307 305 301 298 297 297 298 298 299 302 304 305 307 309 310 309 309 310 311 313 315 317 318 320 316 311 308 308 308 306 303 301 299 297 298 301 300 298 296 292 289 288 289 289 291 292 293 295 295 296 296 294 293 293 291 289 288 286
240 239 237 235 233 235 239 240 239 240 243 243 244 248 252 257 262 267 274 281 288 296 301 302 303 303 304 305 303 299 296 295 296 297 296 298 301 303 304 307 308 308 307 307 308 310 313 314 313 314 314 311 309 310 310 309 307 303 301 300 300 301 302 299 297 295 293 293 295 296 297 298 298 298 299 300 299 298 298 298 298 297 295 291 284
241 240 238 236 237 239 242 241 239 240 243 243 244 248 252 255 259 263 270 278 286 294 298 300 301 302 303 304 302 297 295 294 295 295 295 297 300 302 305 306 306 305 304 303 306 309 309 306 308 312 313 312 312 313 311 311 310 308 308 308 307 304 302 302 303 302 301 301 302 302 302 302 301 300 300 300 299 300 301 302 303 303 302 299 291
241 240 239 240 242 244 244 241 240 241 243 244 246 249 251 254 257 260 266 275 284 291 295 297 300 301 301 302 300 296 293 293 294 294 295 297 300 303 305 305 303 300 298 300 305 303 298 300 309 315 315 314 314 314 313 314 314 314 315 314 311 309 309 310 310 309 307 305 304 304 305 304 303 302 301 301 301 301 302 303 304 304 304 303 301
238 238 239 242 244 247 245 242 241 243 245 246 247 249 250 252 255 259 264 272 281 288 292 295 298 300 300 300 299 295 292 291 292 292 293 297 300 303 304 302 299 295 294 297 296 290 293 305 314 315 313 314 314 313 315 319 320 320 319 317 315 315 315 315 315 314 312 310 309 307 307 306 306 306 305 305 304 303 303 303 303 304 304 304 306
237 237 240 243 246 248 248 245 244 245 247 248 249 250 251 252 254 258 263 269 277 285 290 294 297 299 300 299 298 295 292 291 291 291 293 297 300 303 303 300 296 293 292 291 287 288 299 312 314 310 311 314 315 317 321 324 324 323 321 320 320 321 322 324 324 321 319 317 314 312 311 310 309 308 306 306 305 305 305 305 305 306 307 308 307
239 240 242 244 247 250 250 249 248 248 249 250 251 251 252 252 254 258 262 266 274 281 287 291 295 298 299 298 296 294 292 291 292 292 294 297 300 302 301 298 295 292 290 289 288 294 307 314 312 311 316 318 320 323 325 325 324 324 324 324 326 329 333 335 334 331 327 324 321 318 316 314 312 310 309 309 307 307 308 310 309 309 309 309 307
242 243 244 246 247 250 252 252 252 252 252 252 253 253 253 254 255 259 262 265 272 279 284 289 293 296 297 296 294 293 291 291 292 293 295 298 300 300 299 298 297 295 295 295 295 302 312 316 313 314 315 317 321 323 322 323 324 326 328 331 333 338 341 342 340 337 334 331 327 324 322 319 317 315 314 313 311 311 314 315 312 310 309 308 306
246 246 246 247 248 250 252 254 254 254 254 254 254 254 255 255 256 258 261 265 270 276 282 287 291 294 295 294 293 291 290 290 292 294 296 297 299 299 299 299 298 299 300 299 298 305 314 315 312 312 312 315 320 322 321 324 328 330 334 337 340 345 347 346 343 340 338 336 334 330 328 326 324 324 323 321 320 319 321 320 315 311 309 307 303
250 250 250 251 251 252 254 255 256 256 256 255 255 255 255 255 256 258 261 265 270 275 281 286 290 292 292 291 290 290 289 291 292 292 293 295 298 299 299 296 296 298 295 290 293 303 311 312 310 311 313 316 321 321 322 327 331 334 338 341 343 348 350 348 345 342 340 339 338 339 340 339 338 337 334 331 329 327 327 326 321 318 317 313 306
253 254 255 256 256 257 258 258 258 257 257 256 255 255 255 255 256 258 262 265 270 276 281 285 289 291 290 289 288 287 287 288 290 291 293 297 299 298 294 291 290 285 278 280 290 302 307 307 306 308 311 316 318 319 322 328 332 336 340 342 344 348 350 349 347 343 340 340 344 350 352 349 346 345 342 338 335 333 332 332 330 327 325 320 311
255 257 259 260 261 261 261 261 260 259 258 257 256 255 255 255 256 259 263 267 272 276 280 284 287 289 288 287 285 284 284 286 289 291 294 296 296 293 290 287 281 276 277 284 295 300 300 301 303 305 309 313 315 316 321 327 332 335 339 342 344 346 348 349 347 343 341 344 351 354 352 347 346 346 345 344 342 339 337 337 336 333 329 324 316
257 259 261 262 263 263 263 262 262 260 258 257 256 254 254 255 257 260 263 268 273 276 279 283 286 286 286 285 285 285 285 287 288 288 290 290 289 289 287 279 274 277 284 291 294 294 295 297 299 301 306 309 310 313 319 325 329 333 336 339 342 344 346 347 345 342 342 347 351 351 347 344 342 342 342 343 341 339 338 339 338 336 333 329 325
261 262 263 263 263 263 263 263 262 261 258 256 255 254 254 256 258 261 265 269 273 276 279 283 284 284 283 282 282 282 283 284 285 286 287 287 287 286 280 272 274 281 288 289 288 289 291 292 293 298 303 304 306 310 316 321 325 329 332 335 338 341 343 344 344 342 343 346 349 349 346 344 341 339 338 338 337 335 336 337 337 335 331 328 326
264 264 263 263 263 263 264 263 262 260 257 254 253 253 254 256 259 263 267 270 274 277 281 283 283 282 281 280 278 278 279 279 281 283 284 284 284 279 272 271 277 282 284 282 282 284 286 287 290 294 296 298 302 307 312 316 320 323 326 331 335 337 339 341 342 341 342 345 347 348 347 344 341 339 337 336 335 334 334 335 335 333 328 324 323
264 264 263 263 263 263 263 261 259 256 253 251 250 252 254 256 260 264 267 271 274 278 281 281 280 280 280 279 278 277 277 277 278 279 280 281 278 272 271 274 277 278 279 278 278 279 281 283 286 288 291 294 299 302 306 311 314 317 321 326 330 334 337 339 340 340 341 343 345 347 346 344 343 342 339 337 338 337 336 336 335 332 329 325 323
264 264 263 263 263 262 261 258 255 251 249 248 249 251 254 257 261 265 268 272 275 278 279 279 278 278 277 277 278 278 277 277 277 277 277 277 272 270 271 274 275 274 276 276 275 276 278 279 281 283 287 291 294 298 303 307 309 312 317 321 326 330 333 335 337 338 340 341 342 344 345 345 346 346 342 341 342 341 339 338 337 334 332 329 326
264 264 264 264 263 261 259 255 251 248 247 247 249 252 255 260 263 267 270 274 276 278 278 278 277 275 273 274 275 276 276 276 276 276 275 272 269 269 272 272 270 270 272 272 272 273 274 275 277 280 283 287 291 295 299 302 305 308 312 316 321 325 328 331 334 335 337 338 338 339 342 345 348 348 345 344 344 344 343 341 339 336 336 335 330
264 264 263 262 259 256 254 250 246 244 245 247 250 254 259 262 266 269 273 276 277 277 277 277 275 273 272 272 272 272 273 273 273 273 271 268 267 270 271 268 267 268 268 269 269 270 271 273 275 277 281 285 290 293 296 299 301 305 308 311 315 319 323 327 330 331 333 335 335 335 337 341 346 347 345 344 345 345 345 343 341 338 338 337 334
263 263 261 258 253 249 246 244 242 242 245 250 255 259 263 266 269 272 274 275 276 276 276 276 276 274 273 272 271 271 270 269 269 269 268 266 267 270 270 267 266 267 266 266 267 268 269 271 273 275 279 284 287 291 294 296 298 301 304 307 310 315 319 322 325 328 330 331 332 332 334 337 341 343 344 344 345 345 344 344 343 341 339 338 337
260 259 257 252 247 244 242 241 243 246 251 256 260 263 265 268 271 273 274 275 275 276 276 276 277 276 276 274 272 270 269 268 267 267 265 264 265 268 268 266 265 266 266 266 266 267 268 270 271 274 279 283 286 289 291 293 296 298 301 304 307 311 315 318 321 324 326 328 329 330 330 332 336 340 342 343 343 343 343 344 344 343 342 341 341
255 252 248 244 242 241 242 244 249 254 257 260 263 265 268 270 273 274 275 276 276 277 277 277 277 277 276 274 271 269 269 268 267 265 263 263 265 267 266 263 262 263 265 265 265 266 267 269 271 274 278 281 284 287 289 292 295 297 300 303 305 307 310 314 317 319 321 323 325 327 327 328 331 336 340 340 339 340 342 344 344 344 345 346 346
248 245 242 241 243 246 249 253 256 259 261 264 266 269 272 274 275 276 277 277 278 279 279 278 278 277 275 272 270 268 268 269 268 267 265 265 264 263 261 258 258 260 262 263 264 266 267 269 271 274 277 279 282 285 288 291 294 297 299 300 302 304 307 310 312 314 317 319 321 323 323 324 326 331 335 337 336 337 340 342 344 345 345 347 348
243 242 243 245 248 251 255 258 260 262 265 268 271 273 274 275 276 277 278 279 280 280 279 279 279 277 274 271 268 266 266 268 270 270 269 266 264 261 258 256 256 257 259 261 264 266 268 271 273 275 277 279 282 285 288 291 293 295 297 298 299 301 303 306 308 310 312 315 316 318 319 320 322 325 330 334 335 336 337 339 341 343 343 344 346
245 246 247 250 252 255 258 261 264 267 269 271 273 274 275 276 277 278 279 279 280 280 279 279 278 276 274 270 267 266 266 268 270 271 270 267 265 263 261 258 257 258 259 262 264 267 270 273 275 276 278 281 283 285 287 290 291 293 295 295 296 298 300 303 305 306 308 310 312 313 315 317 319 321 325 331 333 334 335 337 339 340 340 341 343
249 250 253 255 258 260 263 265 268 269 271 273 274 275 277 278 279 279 280 280 280 280 279 279 278 277 275 272 269 267 268 268 269 269 269 269 268 266 264 263 262 262 263 265 267 270 272 274 277 278 280 282 284 286 288 289 290 291 292 293 294 296 298 300 301 302 304 307 308 309 311 314 316 318 323 328 331 332 333 335 337 338 338 339 341
253 256 258 260 262 264 266 268 269 271 272 274 275 276 277 278 280 280 280 281 281 281 281 281 280 278 275 273 271 270 270 269 269 268 269 269 269 268 268 267 267 267 269 270 271 273 275 277 279 281 282 283 285 286 288 289 289 290 291 292 293 295 297 297 298 299 301 303 303 304 307 309 312 315 320 325 328 329 331 332 334 336 337 338 340
257 260 262 263 265 267 268 269 270 271 272 273 275 276 278 280 281 282 283 284 284 284 284 283 281 279 277 275 273 273 272 271 270 269 269 269 270 270 270 270 271 271 273 274 275 276 278 279 280 282 283 285 287 288 289 289 289 290 291 292 293 295 296 296 296 298 300 300 299 300 302 304 307 313 319 323 326 328 328 329 332 333 335 337 340
260 262 263 265 266 266 267 267 268 268 270 272 275 278 281 284 286 287 288 287 287 287 286 285 282 280 278 276 275 274 274 273 273 272 271 271 271 271 272 273 273 274 275 276 277 278 279 280 281 283 285 287 289 290 290 290 290 290 291 292 293 294 294 295 296 297 297 296 295 295 297 299 304 311 318 322 324 326 326 328 330 332 334 337 341
263 264 264 264 263 263 263 264 265 266 270 273 276 279 283 285 287 289 290 289 289 288 287 286 283 281 280 278 277 277 276 275 275 275 274 273 273 273 274 274 275 276 276 277 277 278 279 280 282 285 288 290 291 292 292 291 291 291 292 292 292 293 292 292 294 295 295 293 292 292 293 296 301 308 316 319 321 323 325 327 330 332 334 337 341
263 262 261 260 259 260 261 262 264 267 269 271 274 278 280 282 284 286 287 287 288 288 287 286 285 283 282 281 280 280 279 278 277 277 276 276 276 276 276 276 277 277 278 278 279 280 282 284 286 288 289 291 291 291 291 291 291 292 292 292 293 293 292 290 291 291 292 291 289 289 289 291 296 303 309 314 317 320 323 326 329 331 334 337 340
259 258 257 257 257 259 262 265 267 270 272 275 278 280 280 280 281 281 280 281 283 283 283 283 283 283 283 283 283 283 282 281 281 280 280 279 279 278 278 278 279 279 281 282 284 285 286 287 288 289 290 290 290 289 289 290 290 290 291 292 292 292 291 289 288 288 287 285 284 284 284 286 289 293 298 305 311 315 319 323 327 330 333 337 340